Date,TemperatureHighF,TemperatureAvgF,TemperatureLowF,DewpointHighF,DewpointAvgF,DewpointLowF,HumidityHigh,HumidityAvg,HumidityLow,PressureMaxIn,PressureMinIn,WindSpeedMaxMPH,WindSpeedAvgMPH,GustSpeedMaxMPH,PrecipitationSumIn
2013-5-3,52,51,50,48,46,46,89,86,79,30.38,30.36,12,5,15,0.00
2013-5-4,55,51,46,49,46,44,95,83,68,30.36,30.26,20,7,20,0.00
2013-5-5,52,50,48,47,44,42,91,82,77,30.29,30.23,24,10,24,0.00
2013-5-6,53,51,50,50,49,47,98,93,86,30.26,30.16,19,10,19,0.00
2013-5-7,58,53,50,58,53,49,99,98,95,30.16,30.06,16,8,16,0.03
2013-5-8,68,60,57,65,58,54,99,92,74,30.07,29.96,20,6,20,0.21
2013-5-9,71,63,56,60,57,55,97,82,59,30.00,29.89,17,4,17,0.19
2013-5-10,72,64,57,63,59,55,96,83,63,30.00,29.88,13,3,14,0.00
2013-5-11,70,65,62,66,62,58,98,92,74,29.92,29.70,22,4,22,0.50
2013-5-12,68,62,51,64,47,30,97,63,29,29.96,29.68,29,7,29,0.05
2013-5-13,57,51,44,38,33,26,78,51,33,30.10,29.96,21,6,21,0.00
2013-5-14,61,51,40,45,34,26,83,54,31,30.15,30.03,19,5,19,0.00
2013-5-15,74,61,51,61,53,40,87,77,60,30.09,29.69,18,4,20,0.00
2013-5-16,74,67,58,63,57,47,95,72,39,29.85,29.69,16,3,16,0.07
2013-5-17,71,65,58,63,49,42,82,58,37,30.19,29.82,17,4,17,0.00
2013-5-18,63,59,55,57,54,50,94,85,76,30.31,30.19,14,2,14,0.21
2013-5-19,61,58,56,61,57,54,99,96,91,30.29,30.15,16,3,16,0.39
2013-5-20,74,67,61,69,65,61,99,94,82,30.16,29.98,10,2,10,0.00
2013-5-21,81,73,66,72,68,65,97,86,72,29.98,29.85,14,4,14,0.00
2013-5-22,81,73,68,74,69,67,97,88,76,29.92,29.83,16,4,17,0.00
2013-5-23,78,71,66,71,68,64,95,88,77,29.91,29.76,23,7,23,0.00
2013-5-24,68,62,46,65,60,44,97,94,81,29.97,29.69,24,5,24,0.27
2013-5-25,60,52,45,46,42,36,94,73,43,30.02,29.92,33,12,33,0.05
2013-5-26,70,63,53,46,39,34,73,43,29,30.20,30.03,28,9,28,0.00
2013-5-27,74,61,46,52,44,34,89,56,28,30.26,30.13,19,3,19,0.00
2013-5-28,67,61,55,61,56,47,96,85,62,30.22,30.11,14,2,14,0.26
2013-5-29,85,74,60,71,66,58,95,79,60,30.11,30.02,13,4,13,0.00
2013-5-30,88,79,72,72,69,66,84,72,51,30.14,30.05,14,4,14,0.00
2013-5-31,86,81,75,72,70,68,79,69,61,30.10,30.00,16,4,18,0.00